When you browse on this site, cookies collect data to enhance your experience and personalize the content and advertising you see.
Visit our Privacy Policy to learn more. By continuing to use the site, you agree to this use of cookies and data.
  • en France
  • Liste des pays
  • À 7 jours
  • Température de l'eau
  • Carte météo
  • Widgets météo
  • user-avatar
    Se connecter

    Météo par heure à Offenbach

    Ce jour, 7 Décembre, Samedi

    Heure Température Précipitation Vent Pression Humidité
    00:00 +4°C° 0.2 mm 6 m/s 748 mmHg 88%
    01:00 +5°C° 0 mm 5 m/s 747 mmHg 87%
    02:00 +6°C° 0.1 mm 5 m/s 747 mmHg 87%
    03:00 +5°C° 0.1 mm 6 m/s 747 mmHg 87%
    04:00 +5°C° 0.1 mm 6 m/s 747 mmHg 87%
    05:00 +6°C° 0 mm 5 m/s 748 mmHg 87%
    06:00 +6°C° 0 mm 5 m/s 749 mmHg 86%
    07:00 +7°C° 0 mm 3 m/s 749 mmHg 87%
    08:00 +6°C° 0 mm 4 m/s 750 mmHg 87%
    09:00 +7°C° 0 mm 4 m/s 750 mmHg 86%
    10:00 +7°C° 0 mm 4 m/s 751 mmHg 86%
    11:00 +7°C° 0.1 mm 4 m/s 751 mmHg 84%
    12:00 +7°C° 0.1 mm 4 m/s 751 mmHg 82%
    13:00 +8°C° 0.1 mm 4 m/s 752 mmHg 80%
    14:00 +7°C° 0.1 mm 4 m/s 751 mmHg 80%
    15:00 +7°C° 0.1 mm 4 m/s 751 mmHg 80%
    16:00 +8°C° 0.1 mm 3 m/s 751 mmHg 80%
    17:00 +8°C° 0 mm 3 m/s 752 mmHg 82%
    18:00 +7°C° 0 mm 3 m/s 752 mmHg 84%
    19:00 +7°C° 0 mm 3 m/s 753 mmHg 86%
    20:00 +7°C° 0 mm 3 m/s 752 mmHg 87%
    21:00 +5°C° 0 mm 3 m/s 752 mmHg 89%
    22:00 +5°C° 0 mm 3 m/s 752 mmHg 90%
    23:00 +5°C° 0 mm 3 m/s 752 mmHg 90%

    Demain, 8 Décembre, Dimanche

    Heure Température Précipitation Vent Pression Humidité
    00:00 +5°C° 0 mm 3 m/s 752 mmHg 91%
    01:00 +5°C° 0 mm 3 m/s 752 mmHg 91%
    02:00 +5°C° 0 mm 3 m/s 751 mmHg 91%
    03:00 +4°C° 0 mm 3 m/s 750 mmHg 91%
    04:00 +4°C° 0 mm 4 m/s 749 mmHg 91%
    05:00 +5°C° 0 mm 4 m/s 749 mmHg 90%
    06:00 +5°C° 0 mm 4 m/s 748 mmHg 88%
    07:00 +6°C° 0 mm 5 m/s 748 mmHg 86%
    08:00 +6°C° 0 mm 5 m/s 748 mmHg 84%
    09:00 +7°C° 0 mm 6 m/s 747 mmHg 83%
    10:00 +8°C° 0 mm 6 m/s 747 mmHg 82%
    11:00 +8°C° 0.5 mm 6 m/s 746 mmHg 83%
    12:00 +8°C° 0.5 mm 6 m/s 745 mmHg 84%
    13:00 +9°C° 0.5 mm 7 m/s 744 mmHg 84%
    14:00 +9°C° 0.2 mm 6 m/s 744 mmHg 85%
    15:00 +9°C° 0.2 mm 6 m/s 744 mmHg 86%
    16:00 +9°C° 0.2 mm 6 m/s 743 mmHg 87%
    17:00 +9°C° 0.5 mm 5 m/s 743 mmHg 88%
    18:00 +10°C° 0.5 mm 4 m/s 743 mmHg 89%
    19:00 +10°C° 0.5 mm 4 m/s 743 mmHg 89%
    20:00 +8°C° 0.3 mm 4 m/s 742 mmHg 86%
    21:00 +8°C° 0.3 mm 4 m/s 742 mmHg 83%
    22:00 +8°C° 0.3 mm 4 m/s 742 mmHg 80%
    23:00 +7°C° 0 mm 5 m/s 742 mmHg 77%

    Après-demain, 9 Décembre, Lundi

    Heure Température Précipitation Vent Pression Humidité
    00:00 +7°C° 0 mm 5 m/s 741 mmHg 75%
    01:00 +5°C° 0 mm 6 m/s 741 mmHg 72%
    02:00 +5°C° 0 mm 6 m/s 741 mmHg 73%
    03:00 +5°C° 0 mm 6 m/s 741 mmHg 74%
    04:00 +5°C° 0 mm 6 m/s 741 mmHg 75%
    05:00 +5°C° 0 mm 6 m/s 740 mmHg 75%
    06:00 +5°C° 0 mm 7 m/s 740 mmHg 75%
    07:00 +5°C° 0 mm 7 m/s 740 mmHg 75%
    08:00 +5°C° 0 mm 7 m/s 739 mmHg 75%
    09:00 +5°C° 0 mm 8 m/s 739 mmHg 75%
    10:00 +5°C° 0 mm 8 m/s 739 mmHg 76%
    11:00 +5°C° 0.1 mm 8 m/s 740 mmHg 74%
    12:00 +5°C° 0.1 mm 7 m/s 740 mmHg 72%
    13:00 +5°C° 0.1 mm 7 m/s 740 mmHg 71%
    14:00 +5°C° 0.1 mm 7 m/s 741 mmHg 71%
    15:00 +5°C° 0.1 mm 7 m/s 741 mmHg 71%
    16:00 +4°C° 0.1 mm 7 m/s 741 mmHg 72%
    17:00 +4°C° 0.2 mm 7 m/s 742 mmHg 76%
    18:00 +4°C° 0.2 mm 7 m/s 743 mmHg 81%
    19:00 +3°C° 0.2 mm 7 m/s 744 mmHg 85%
    20:00 +4°C° 0.5 mm 6 m/s 745 mmHg 85%
    21:00 +4°C° 0.5 mm 6 m/s 747 mmHg 84%
    22:00 +5°C° 0.5 mm 5 m/s 748 mmHg 84%
    23:00 +5°C° 0.1 mm 5 m/s 749 mmHg 79%

    10 Décembre, Mardi

    Heure Température Précipitation Vent Pression Humidité
    00:00 +4°C° 0.1 mm 4 m/s 751 mmHg 74%
    01:00 +3°C° 0.1 mm 4 m/s 752 mmHg 69%
    02:00 +3°C° 0 mm 4 m/s 753 mmHg 71%
    03:00 +2°C° 0 mm 3 m/s 754 mmHg 72%
    04:00 +2°C° 0 mm 3 m/s 755 mmHg 74%
    05:00 +2°C° 0 mm 3 m/s 756 mmHg 76%
    06:00 +1°C° 0 mm 3 m/s 757 mmHg 78%
    07:00 +1°C° 0 mm 3 m/s 757 mmHg 79%
    08:00 +1°C° 0 mm 3 m/s 758 mmHg 78%
    09:00 +2°C° 0 mm 3 m/s 759 mmHg 77%
    10:00 +2°C° 0 mm 3 m/s 759 mmHg 76%
    11:00 +3°C° 0 mm 3 m/s 759 mmHg 73%
    12:00 +3°C° 0 mm 3 m/s 759 mmHg 70%
    13:00 +5°C° 0 mm 2 m/s 759 mmHg 67%
    14:00 +5°C° 0 mm 2 m/s 758 mmHg 69%
    15:00 +4°C° 0 mm 2 m/s 758 mmHg 72%
    16:00 +4°C° 0 mm 2 m/s 758 mmHg 75%
    17:00 +3°C° 0 mm 2 m/s 757 mmHg 78%
    18:00 +3°C° 0 mm 2 m/s 757 mmHg 81%
    19:00 +2°C° 0 mm 2 m/s 756 mmHg 84%
    20:00 +2°C° 0 mm 2 m/s 756 mmHg 84%
    21:00 +2°C° 0 mm 2 m/s 755 mmHg 83%
    22:00 +2°C° 0 mm 2 m/s 755 mmHg 82%
    23:00 +2°C° 0 mm 2 m/s 754 mmHg 81%

    11 Décembre, Mercredi

    Heure Température Précipitation Vent Pression Humidité
    00:00 +1°C° 0 mm 3 m/s 754 mmHg 79%
    01:00 +1°C° 0 mm 3 m/s 753 mmHg 77%
    02:00 +1°C° 0 mm 3 m/s 753 mmHg 76%
    03:00 +1°C° 0 mm 3 m/s 752 mmHg 74%
    04:00 +1°C° 0 mm 3 m/s 751 mmHg 73%
    05:00 +1°C° 0.3 mm 3 m/s 751 mmHg 76%
    06:00 +1°C° 0.3 mm 3 m/s 751 mmHg 79%
    07:00 +1°C° 0.3 mm 3 m/s 751 mmHg 82%
    08:00 +1°C° 0.6 mm 3 m/s 750 mmHg 85%
    09:00 +2°C° 0.6 mm 2 m/s 750 mmHg 89%
    10:00 +2°C° 0.6 mm 2 m/s 750 mmHg 92%
    11:00 +2°C° 0.7 mm 2 m/s 750 mmHg 92%
    12:00 +2°C° 0.7 mm 2 m/s 749 mmHg 92%
    13:00 +3°C° 0.7 mm 2 m/s 749 mmHg 92%
    14:00 +3°C° 0.5 mm 2 m/s 749 mmHg 93%
    15:00 +3°C° 0.5 mm 2 m/s 749 mmHg 94%
    16:00 +3°C° 0.5 mm 2 m/s 749 mmHg 94%
    17:00 +3°C° 0.1 mm 2 m/s 749 mmHg 94%
    18:00 +3°C° 0.1 mm 2 m/s 749 mmHg 94%
    19:00 +3°C° 0.1 mm 2 m/s 749 mmHg 95%
    20:00 +3°C° 0 mm 2 m/s 748 mmHg 94%
    21:00 +3°C° 0 mm 2 m/s 748 mmHg 94%
    22:00 +2°C° 0 mm 2 m/s 748 mmHg 94%
    23:00 +1°C° 0 mm 3 m/s 748 mmHg 93%

    12 Décembre, Jeudi

    Heure Température Précipitation Vent Pression Humidité
    00:00 +1°C° 0 mm 3 m/s 747 mmHg 92%
    01:00 +1°C° 0 mm 3 m/s 747 mmHg 92%
    02:00 +1°C° 0.1 mm 3 m/s 746 mmHg 92%
    03:00 +2°C° 0.1 mm 3 m/s 746 mmHg 93%
    04:00 +1°C° 0.1 mm 4 m/s 746 mmHg 94%
    05:00 +1°C° 0.2 mm 4 m/s 746 mmHg 94%
    06:00 +1°C° 0.2 mm 4 m/s 746 mmHg 94%
    07:00 +1°C° 0.2 mm 4 m/s 747 mmHg 94%
    08:00 +1°C° 0.1 mm 4 m/s 747 mmHg 90%
    09:00 +1°C° 0.1 mm 4 m/s 748 mmHg 86%
    10:00 +1°C° 0.1 mm 4 m/s 748 mmHg 82%
    11:00 +3°C° 0 mm 4 m/s 748 mmHg 80%
    12:00 +3°C° 0 mm 4 m/s 748 mmHg 78%
    13:00 +2°C° 0 mm 5 m/s 748 mmHg 76%
    14:00 +2°C° 0 mm 5 m/s 747 mmHg 77%
    15:00 +2°C° 0 mm 5 m/s 747 mmHg 79%
    16:00 +3°C° 0 mm 4 m/s 747 mmHg 80%
    17:00 +2°C° 0.3 mm 5 m/s 746 mmHg 84%
    18:00 +2°C° 0.3 mm 5 m/s 745 mmHg 88%
    19:00 +2°C° 0.3 mm 5 m/s 745 mmHg 92%
    20:00 +2°C° 0.2 mm 5 m/s 744 mmHg 91%
    21:00 +2°C° 0.2 mm 5 m/s 743 mmHg 89%
    22:00 +3°C° 0.2 mm 5 m/s 743 mmHg 87%
    23:00 +3°C° 0.3 mm 5 m/s 741 mmHg 87%
    Voir plus